This is the latest recevied weather packets stored in our database for station/object N8XHB. If no packets are shown the sender has not sent any weather packets the latest 10 day(s).
| Time | Temp. | Humidity | Pressure | Rain* | Wind** | Luminosity | Snow |
|---|---|---|---|---|---|---|---|
| 1777902670 | 17.22° C | 54% | 1003.4 hPa | 0 mm | - | 482 W/m² | - |
| 1777902368 | 16.67° C | 55% | 1003.8 hPa | 0 mm | - | 461 W/m² | - |
| 1777902064 | 16.67° C | 55% | 1003.7 hPa | 0 mm | - | 445 W/m² | - |
| 1777901763 | 16.67° C | 55% | 1003.6 hPa | 0 mm | - | 376 W/m² | - |
| 1777901460 | 16.67° C | 56% | 1003.9 hPa | 0 mm | - | 413 W/m² | - |
| 1777901157 | 16.11° C | 57% | 1003.7 hPa | 0 mm | - | 393 W/m² | - |
| 1777900855 | 16.11° C | 57% | 1003.9 hPa | 0 mm | - | 381 W/m² | - |
| 1777900552 | 15.56° C | 58% | 1003.7 hPa | 0 mm | - | 360 W/m² | - |
| 1777900249 | 15.56° C | 59% | 1003.9 hPa | 0 mm | - | 347 W/m² | - |
| 1777899945 | 15° C | 59% | 1004.2 hPa | 0 mm | - | 328 W/m² | - |
| 1777899642 | 15° C | 60% | 1004 hPa | 0 mm | - | 311 W/m² | - |
| 1777899340 | 15° C | 61% | 1003.9 hPa | 0 mm | - | 297 W/m² | - |
| 1777899037 | 14.44° C | 63% | 1003.9 hPa | 0 mm | - | 281 W/m² | - |
| 1777898734 | 13.89° C | 63% | 1003.8 hPa | 0 mm | - | 266 W/m² | - |
| 1777898432 | 13.89° C | 64% | 1004.1 hPa | 0 mm | - | 252 W/m² | - |
| 1777898129 | 13.89° C | 64% | 1004 hPa | 0 mm | - | 238 W/m² | - |
| 1777897826 | 13.33° C | 65% | 1004 hPa | 0 mm | - | 223 W/m² | - |
| 1777897522 | 13.33° C | 65% | 1003.9 hPa | 0 mm | - | 208 W/m² | - |
| 1777897217 | 13.33° C | 66% | 1003.9 hPa | 0 mm | - | 195 W/m² | - |
| 1777896914 | 12.78° C | 67% | 1003.8 hPa | 0 mm | - | 180 W/m² | - |
| 1777896611 | 12.78° C | 67% | 1003.8 hPa | 0 mm | - | 166 W/m² | - |
| 1777896308 | 12.78° C | 67% | 1003.7 hPa | 0 mm | - | 152 W/m² | - |
| 1777896007 | 12.22° C | 68% | 1003.6 hPa | 0 mm | - | 139 W/m² | - |
| 1777895704 | 12.22° C | 69% | 1003.6 hPa | 0 mm | - | 126 W/m² | - |
| 1777895400 | 11.67° C | 69% | 1003.7 hPa | 0 mm | - | 113 W/m² | - |
* Rain latest hour (hover to see other rain measurements)
** Current wind speed in m/s (hover to see current wind gust speed)